Location: Newark
(17.9939°S, 31.0481°E)
Time: 19:09:09
(UTC+00:00)

A-11 Canister half - Visible Passes

Search period start: 12 November 2019 00:00
Search period end: 22 November 2019 00:00
Orbit: 1514 x 1686 km, 47.2° (Epoch: 11 November)

Date Brightness Start Highest point End Pass type
(mag) Time Alt. Az. Time Alt. Az. Time Alt. Az.
12 Nov 10.9 01:43:27 10° NNE 01:49:17 18° NE 01:55:03 10° E visible
13 Nov 10.9 01:21:09 10° NNE 01:26:24 16° NE 01:31:34 10° E visible
14 Nov 10.9 00:58:59 10° NNE 01:03:30 14° NE 01:07:58 10° E visible
15 Nov 11.0 00:37:02 10° NNE 00:40:36 13° NE 00:44:09 10° ENE visible
15 Nov 9.2 02:35:29 10° NW 02:44:56 74° NE 02:54:11 10° SE visible
16 Nov 11.0 00:15:33 10° NE 00:17:43 11° NE 00:19:51 10° ENE visible
16 Nov 9.3 02:12:37 10° NNW 02:22:03 68° NE 02:31:15 10° SE visible
17 Nov 9.3 01:51:15 16° NNW 01:59:09 63° NE 02:08:18 10° SE visible
18 Nov 9.3 01:30:02 23° NNW 01:36:16 58° NE 01:45:20 10° SE visible
19 Nov 9.4 01:08:45 31° N 01:13:23 53° NE 01:22:22 10° SE visible
20 Nov 9.5 00:47:25 38° N 00:50:29 49° NE 00:59:22 10° ESE visible
20 Nov 9.6 02:46:34 10° WNW 02:55:20 41° SW 03:04:00 10° SSE visible
21 Nov 9.5 00:26:01 42° NNE 00:27:36 45° NE 00:36:21 10° ESE visible
21 Nov 9.5 02:24:14 13° WNW 02:32:23 45° SW 02:41:11 10° SSE visible
